Change the Weather History Date:

Friday, October 5, 2012

  Actual Average Record
Temperature  
Mean Temperature 56 °F -  
Max Temperature 67 °F 59 °F - ()
Min Temperature 47 °F 41 °F - ()
Degree Days  
Heating Degree Days 8    
Growing Degree Days 6 (Base 50)    
Moisture  
Dew Point 48 °F    
Average Humidity 71    
Maximum Humidity 100    
Minimum Humidity 34    
Precipitation  
Precipitation 0.00 in 0.04 in - ()
Sea Level Pressure  
Sea Level Pressure 30.11 in    
Wind  
Wind Speed 5 mph ()    
Max Wind Speed 14 mph    
Max Gust Speed -    
Visibility 6.0 miles    
Events      
T = Trace of Precipitation, MM = Missing Value Source: Averaged Metar Reports

Daily Weather History Graph

Daily Weather History Graph

Search for Another Location

Airport or City:

Trip Planner

Search our weather history database for the weather conditions in past years. The results will help you decide how hot, cold, wet, or windy it might be!

Date:

Astronomy

Oct. 05, 2012 Rise Set
Actual Time 6:38 AM CEST 6:04 PM CEST
Civil Twilight 6:07 AM CEST 6:35 PM CEST
Nautical Twilight 5:32 AM CEST 7:10 PM CEST
Astronomical Twilight 4:55 AM CEST 7:46 PM CEST
Moon 8:53 PM CEST (10/5) 11:50 AM CEST (10/5)
Length of Visible Light 12h 27m
Length of Day
11h 26m
Waning Gibbous, 76% of the Moon is Illuminated
Oct 5
Waning Gibbous
Oct 8
Last Quarter
Oct 15
New
Oct 22
First Quarter
Oct 29
Full

Hourly Weather History & Observations

Time (CEST) Temp. Dew Point Humidity Pressure Visibility Wind Dir Wind Speed Gust Speed Precip Events Conditions
2:00 AM 54 °F 52 °F 90% 30.02 in - WSW 4.5 mph - -  
4:45 AM 50.0 °F 48.2 °F 94% 30.01 in - South 4.6 mph - N/A   Clear
5:45 AM 50.0 °F 48.2 °F 94% 30.04 in - SSW 4.6 mph - N/A   Clear
6:15 AM 48.2 °F 48.2 °F 100% 30.04 in - SSW 5.8 mph - N/A   Clear
6:45 AM 48.2 °F 46.4 °F 93% 30.04 in 5.0 mi Calm Calm - N/A   Partly Cloudy
7:00 AM - - N/A% - - SSW 5.8 mph - N/A   Clear
7:15 AM 48.2 °F 46.4 °F 93% 30.06 in 3.1 mi South 2.3 mph - N/A   Scattered Clouds
7:21 AM 48.2 °F 48.2 °F 100% 30.06 in 3.1 mi West 1.2 mph - N/A   Scattered Clouds
7:45 AM 50.0 °F 48.2 °F 94% 30.06 in 3.1 mi South 2.3 mph - N/A   Mostly Cloudy
8:00 AM 49 °F 48 °F 95% 30.07 in 3 mi South 2.2 mph - -   Mist
8:15 AM 53.6 °F 51.8 °F 94% 30.09 in 3.7 mi WNW 5.8 mph - N/A   Mostly Cloudy
8:45 AM 55.4 °F 51.8 °F 88% 30.09 in 3.7 mi WNW 8.1 mph - N/A   Scattered Clouds
9:15 AM 55.4 °F 53.6 °F 94% 30.12 in - WNW 6.9 mph - N/A   Clear
9:45 AM 59.0 °F 51.8 °F 77% 30.12 in 6.2 mi North 6.9 mph - N/A   Mostly Cloudy
10:00 AM - - N/A% - 6.2 mi North 10.4 mph - N/A   Mostly Cloudy
10:15 AM 59.0 °F 50.0 °F 72% 30.12 in 6.2 mi NNE 13.8 mph - N/A   Mostly Cloudy
10:45 AM 60.8 °F 48.2 °F 63% 30.12 in 6.2 mi NNE 13.8 mph - N/A   Mostly Cloudy
11:15 AM 60.8 °F 48.2 °F 63% 30.12 in 6.2 mi North 10.4 mph - N/A   Mostly Cloudy
11:45 AM 62.6 °F 44.6 °F 52% 30.15 in 6.2 mi NE 10.4 mph - N/A   Mostly Cloudy
12:15 PM 62.6 °F 46.4 °F 55% 30.15 in 6.2 mi North 6.9 mph - N/A   Mostly Cloudy
12:45 PM 62.6 °F 46.4 °F 55% 30.15 in 6.2 mi NNE 5.8 mph - N/A   Mostly Cloudy
1:00 PM - - N/A% - 6.2 mi North 6.9 mph - N/A   Mostly Cloudy
1:15 PM 64.4 °F 44.6 °F 49% 30.15 in 6.2 mi WNW 2.3 mph - N/A   Mostly Cloudy
1:45 PM 66.2 °F 44.6 °F 46% 30.15 in 6.2 mi SW 2.3 mph - N/A   Mostly Cloudy
2:00 PM 66 °F 44 °F 34% 30.14 in 25 mi SW 2.2 mph - -   Partly Cloudy
2:15 PM 66.2 °F 46.4 °F 49% 30.15 in 6.2 mi South 3.5 mph - N/A   Mostly Cloudy
2:45 PM 66.2 °F 48.2 °F 52% 30.12 in 6.2 mi South 5.8 mph - N/A   Mostly Cloudy
3:15 PM 66.2 °F 46.4 °F 49% 30.12 in 6.2 mi SSW 5.8 mph - N/A   Mostly Cloudy
3:45 PM 66.2 °F 46.4 °F 49% 30.12 in 6.2 mi SSW 5.8 mph - N/A   Mostly Cloudy
4:00 PM - - N/A% - - WSW 8.1 mph - N/A   Clear
4:15 PM 66.2 °F 46.4 °F 49% 30.12 in 6.2 mi SW 8.1 mph - N/A   Mostly Cloudy
4:45 PM 66.2 °F 48.2 °F 52% 30.12 in - SW 5.8 mph - N/A   Clear
5:15 PM 64.4 °F 50.0 °F 59% 30.12 in - WSW 6.9 mph - N/A   Clear
5:45 PM 62.6 °F 50.0 °F 63% 30.12 in - SW 6.9 mph - N/A   Clear
6:15 PM 59.0 °F 50.0 °F 72% 30.12 in - SW 5.8 mph - N/A   Clear
6:45 PM 59.0 °F 50.0 °F 72% 30.12 in - WSW 4.6 mph - N/A   Clear
7:15 PM 59.0 °F 50.0 °F 72% 30.12 in - WSW 5.8 mph - N/A   Clear
7:45 PM 57.2 °F 50.0 °F 77% 30.15 in - SW 5.8 mph - N/A   Clear
8:00 PM 56 °F 49 °F 71% 30.14 in 19 mi SW 4.5 mph - -   Partly Cloudy
8:04 PM - - N/A% - - North - - N/A   Unknown